225  
ASHW40 PHFO 240143  
RWRHI  
 
WEATHER ROUNDUP FOR HAWAII  
NATIONAL WEATHER SERVICE HONOLULU HI  
300 PM HST WED MAY 23 2018  
 
THIS IS AN AUTOMATED REPORT THAT HAS NOT BEEN QUALITY CONTROLLED.  
 
NOTE..."FAIR" INDICATES FEW OR NO CLOUDS BELOW 12,000 FEET WITH NO  
SIGNIFICANT WEATHER AND/OR S TO VISIBILITY
.  
 
* - THESE SITES REPORT LIMITED FIELDS  
# - BUOY DATA PROVIDED BY PACIFIC ISLANDS OCEAN OBSERVING SYSTEM.  
 
HIZ001>004-240200-  
KAUAI-NIIHAU-  
 
CITY SKY/WX TMP DP RH WIND PRES REMARKS
 
LIHUE APT PTSUNNY 80 69 69 NE17 30.06F  
PORT ALLEN* N/A 82 N/A N/A NE20G28 N/A  
POIPU* N/A 82 N/A N/A NE9G22 N/A  
PRINCEVILLE* N/A 77 N/A N/A NE10G17 N/A  
KOKOLE POINT* NOT AVBL  
MOLOAA DAIRY* N/A 79 70 73 NE3G10 N/A  
WAIMEA HTS* N/A 86 68 54 W6G14 N/A  
PUU OPAE* N/A 70 63 78 SW5 N/A  
PUU LUA* NOT AVBL  
MAKAHA RIDGE* N/A 77 66 69 NE1 N/A  

 
 
HIZ005>011-240200-  
OAHU-  
 
CITY SKY/WX TMP DP RH WIND PRES REMARKS
 
HONOLULU PTSUNNY 82 65 56 NE15G24 30.02S  
KALAELOA PTSUNNY 82 66 58 NE13G20 30.02F  
KANEOHE MCB MOSUNNY 80 70 71 NE13G20 30.02S  
WHEELER FIELD CLOUDY 75 66 73 NE14 30.03F  
BELLOWS* N/A N/A N/A N/A NE18 N/A  
KAHUKU* N/A N/A N/A N/A NE10G20 N/A  
WHEELER* N/A N/A N/A N/A NE6G15 N/A  
WAIANAE HARBOR N/A N/A N/A N/A NE7G18 N/A  
DILLINGHAM* NOT AVBL  
KAHUKU TRN* N/A 77 68 73 W8 N/A  
KAWAILOA* N/A 72 64 78 E14 N/A  
KII* N/A 79 68 69 E17 N/A  
MAKUA RANGE* N/A 82 64 54 E12 N/A  
OAHU FOREST NW NOT AVBL  
SCHOFIELD BRK* N/A 73 63 68 E9 N/A  
SCHOFIELD S* NOT AVBL  
WAIANAE VLY* NOT AVBL  
KUAOKALA* N/A 73 64 73 E22 N/A  
HONOULIUULI* NOT AVBL  
MOKUOLOE IS* NOT AVBL  
PALEHUA* N/A 72 63 73 NE8G25 N/A  
WAIAWA PHB* NOT AVBL  

 
 
HIZ012>013-240200-  
MOLOKAI-  
 
CITY SKY/WX TMP DP RH WIND PRES REMARKS
 
MOLOKAI AIRPT MOSUNNY 81 67 62 NE18G28 30.03S  
KALAUPAPA NOT AVBL  
MAKAPULAPAI* N/A 77 70 78 E13G26 N/A  
MOLOKAI 1* NOT AVBL  
PUU ALII* N/A 61 60 98 N3G14 N/A  

 
 
HIZ016-240200-  
KAHOOLAWE-  
 
CITY SKY/WX TMP DP RH WIND PRES REMARKS
 
KAHOOLAWE* NOT AVBL  
HAKIOAWA* N/A 71 66 83 MISG 30.42S  
HONOKANAIA* NOT AVBL  
KANELOA* N/A 77 68 73 E21G32 30.07F  
KEALIALALO* NOT AVBL  
LUA MAKIKA* NOT AVBL  

 
 
HIZ014>015-240200-  
LANAI-  
 
CITY SKY/WX TMP DP RH WIND PRES REMARKS
 
LANAI CITY MOSUNNY 79 64 61 NE12 30.04F  
LANAI 1* NOT AVBL  

 
 
HIZ017>028-240200-  
MAUI-  
 
CITY SKY/WX TMP DP RH WIND PRES REMARKS
 
KAHULUI MOSUNNY 79 68 69 NE23G31 30.00F  
KAPALUA-W MAUI MOSUNNY 77 68 73 NE18G26 30.01  
HANA AIRPORT NOT AVBL  
HANA* N/A 79 N/A N/A E9 N/A  
HALEAKALA SUMM N/A 64 36 34 SE1 N/A  
MAALAEA BAY* N/A 81 N/A N/A VRB18G33 N/A  
HALEAKALA* NOT AVBL  
KAUPO GAP* NOT AVBL  
KULA 1* N/A 64 57 77 NW6 N/A  

 
 
HIZ023>026-240200-  
BIG ISLAND OF HAWAII COAST AND LOWER SLOPES-  
 
CITY SKY/WX TMP DP RH WIND PRES REMARKS
 
KAILUA KONA MOSUNNY 84 66 54 SW12 29.94F  
HILO CLOUDY 79 66 64 N8 30.02F  
HONOKAA* N/A 75 N/A N/A VRB1 N/A  
KAWAIHAE MWT* N/A 84 N/A N/A W10 N/A  
KAWAIHAE* N/A 81 N/A N/A W9 29.93F  
SOUTH POINT* N/A 75 N/A N/A N15G28 N/A  
UPOLU AIRPORT* NOT AVBL  
KAMUELA* PTCLDY 73 59 60 NE20 30.07S  
HAKALAU* N/A 57 55 94 E2 N/A  
KALOKO-HONOKO* N/A 82 68 61 SW8 29.95S  
PALI 2* N/A 73 55 53 N18 N/A  
KEALAKOMO* N/A 86 59 39 NE21 N/A  
KAUPULEHU* N/A 82 61 47 VRB13G25 N/A  
KAPAPALA* NOT AVBL  
LOWER KAHUKU* N/A 68 64 88 E3G12 N/A  
PUHE CS* N/A 84 68 58 SW3G9 N/A  
PUHO CS* N/A 79 67 66 W2 N/A  
PTA KEAMUKU* N/A 73 57 56 NE21 N/A  
WAIKOLOA* N/A 81 57 44 NE22G35 N/A  

 
 
HIZ027>028-240200-  
BIG ISLAND OF HAWAII INTERIOR AND SUMMMITS-  
 
CITY SKY/WX TMP DP RH WIND PRES REMARKS
 
BRADSHAW FIELD SUNNY 75 52 44 SW5 30.27F  
MK VISITOR CEN N/A 57 48 72 S7 N/A  
MAUNA KEA* N/A 52 10 19 N15 N/A  
MAUNA LOA* N/A 57 39 51 MISG N/A  
MAUNA LOA 1* NOT AVBL  
PTA KIPUKA* N/A 72 54 53 SE8G16 N/A  
PTA RANGE 17* N/A 72 54 53 E7 N/A  
PTA WEST* N/A 73 57 56 NW8 N/A  
NENE CABIN* N/A 61 55 82 E5G12 N/A  
AHUMOA* N/A 69 57 65 NW10 N/A  
PTA PORTABLE* NOT AVBL  
PUU MALI* N/A 64 54 68 NE10 N/A  

 
 
HIC003-240200-  
NORTHWEST ISLANDS-  
 
CITY SKY/WX TMP DP RH WIND PRES REMARKS
 
MIDWAY ISLAND PTSUNNY 77 68 73 E14 30.20F  
MIDWAY NOS* N/A 72 N/A N/A MISG 30.18F  
FRENCH FRIGATE NOT AVBL  

 
 
PHZ110>124-180-240200-  
BUOY REPORTS  
 
STATION/POSITION TIME TEMP WIND PRES WAVE SWELL
 
AIR SEA DIR/SP/G HT/PER HT/DIR  
(UTC) (F) (DEG/KT/KT) (MB) (FT/S) (FT/D)  
BUOY 51101 0050 70 75 40/ 19/ 23 1021.5F 9/ 7 3  
BUOY 51100 NOT AVBL  
BUOY 51002 0110 79 80 60/ 21/ 25 1013.5  
BUOY 51003 0050 78 79 50/ 14/ 17 1014.8F 7/ 8 5/ 80  
BUOY 51004 0110 77 79 50/ 19/ 25 N/A  
WAIMEA BAY# NOT AVBL  
MOKAPU POINT# 0104 77 N/A 7/ 9 2/350  
LANAI# NOT AVBL  
BARBERS PT 2# NOT AVBL  
PAUWELA# 0100 77 N/A 6/13 2/330  
HILO# 0127 79 N/A 6/ 9 2/340  
KANEOHE BAY# 0124 77 N/A 6/ 6 2/350  
KANEOHE BAY 2# NOT AVBL  
HANALEI# NOT AVBL  
KAHULUI HARBOR 0106 75 79 30/ 15/ 19 1016.3  
HONOLULU HARBOR 0106 80 78 110/ 7/ 11 1016.0  
PEARL HARBOR# 0100 78 N/A 3/20 2/180  
KILO NALU NOT AVBL  
HILO HARBOR 0106 77 79 10/ 9/ 10 1016.1  
MOKUOLOE 0036 77 79 70/ 14/ 18 1017.3R  
NAWILIWILI 0106 77 79 50/ 12/ 18 1017.5  
WHOTS BUOY NOT AVBL  
BUOY 51028 NOT AVBL  

 
   
.....................KEY.....................................
 
 
SKY/WX - SKY CONDITIONS/PRESENT WEATHER  
TMP - TEMPERATURE IN FAHRENHEIT  
DWPT - DEWPOINT IN FAHRENHEIT  
RH - RELATIVE HUMIDITY IN PERCENT  
WIND - DIRECTION AND SPEED /MPH FOR ISLANDS...KTS FOR BUOYS/  
PRES - MEAN SEA LEVEL PRESSURE IN INCHES OF HG  
VSB - VISIBILITY IN MILES  
HX - HEAT INDEX  
WCI - WIND CHILL INDEX  
VRB - VARIABLE WIND DIRECTION  
N/A - NOT AVAILABLE  
 
 
CLICK HERE TO GO TO PREVIOUS BULLETINS.

The Nexlab HI Page Main Text Page